User: anonymous   Login
Location: Ellerstadt
(49.4644°N, 8.2615°E)
Time: 19:08:30
(UTC+00:00)
Language:

Transit 2A Rocket - Orbit

View from above orbital plane
View from above orbital plane
View from above satellite
View from above satellite

Ground track
Ground track

The orbit data is extracted from the following two-line orbital elements,

1 00047U 60007C   21169.53357021 -.00000073  00000-0  86925-5 0  9995
2 00047  66.6661 256.1234 0223242  33.7764 327.7333 14.42155113187463
Epoch (UTC): 18 June 2021 12:48:20
Eccentricity: 0.0223242
inclination: 66.6661°
perigee height: 592 km
apogee height: 910 km
right ascension of ascending node: 256.1234°
argument of perigee: 33.7764°
revolutions per day: 14.42155113
mean anomaly at epoch: 327.7333°
orbit number at epoch: 18746

The dashed part of the orbit path shows where the satellite is in the earth's shadow,  

DLR